الصفحة الرئيسية
METAR-TAF:

METAR-TAF

مطار :

بارس أباد, إيران

دائرة عرض: 39-36-13N, خط طول: 47-52-53E, ارتفاع: 77 متر

مراقبة الطقس الحالي

تاريخ ووقت الإصدار 23 دقيقة قبل الساعة 16:00UTC
ريح 10 عقدة من الجنوب الشرقي
درجة الحرارة 32°درجة مئوية
الرطوبة 34%
ضغط 1007 hPa
الرؤية 10 كم أو أكثر
الغيوم لا تقل 1500 م ولا وجود لمزنة ركامية السحاب الأسود

METAR: OITP 201600Z 14010KT CAVOK 32/14 Q1007

زمن: 20:53 (16:23 UTC)


TAF: مفقودة

أرصاد الطقس والتوقعات من أكثر من 4000 مطار (تقارير الطقس للمطار METAR والتنبؤ بالطقس بالمطارTAF).

المحطات المتاحة هي النقط الصفراء والحمراء على الخريطة.

حرك المؤشر فوق النقطة لمعرفة اسم المحطة.

ثم انقر لمعرفة أرصاد وتوقعات الطقس.

لتغيير الخارطة: اضغط على الأزرار الخضراء مع رمز الصليب الأسود للتكبير. على الزر الأخضر مع شرطة للتصغير، أو على الأسهم الخضراء للخرائط المجاورة.


METAR-TAF: